CPA288 EDDF-VHHH

Flight info

Callsign CPA288
Flight time N/A
Altitude 31000
Route SULUS6F/25C SULUS Z650 VEMUT/N0486F330 DCT BUDEX DCT TEKNO DCT TEGRI DCT LUGEB DCT UDROS UM859 KARDE UL851 TBN UM11 REBLO M11 EDATA/N0485F350 M11 LUSAL M747 SULEL N449 DUKAN B449 RANAH L750 MERUN G452 LKN A201 BODOG/N0489F370 A201 LSO A599 LINSO/K0907S1130 A599 POU R473 SIERA/N0495F371
Aircraft B77W/H-SDE1E2E3FGHIJ2J3J4J5M1RWXY/LB1D1

Departure

Time 2026-04-17 12:07
Airport Frankfurt Main Airport (EDDF)

Arrival

Time N/A
Airport Hong Kong International Airport (VHHH)
Time Latitude Longitude Altitude Speed Heading
2026-04-17 11:05 50.05119 8.58982 351 ft 0 kts 341°
2026-04-17 11:53 50.05099 8.58993 360 ft 3 kts 340°
2026-04-17 11:53 50.05078 8.59007 360 ft 4 kts 322°
2026-04-17 11:53 50.05067 8.59023 360 ft 4 kts 291°
2026-04-17 11:54 50.05065 8.59050 360 ft 4 kts 251°
2026-04-17 11:54 50.05076 8.59088 360 ft 4 kts 248°
2026-04-17 11:54 50.05078 8.59098 360 ft 0 kts 250°
2026-04-17 11:59 50.05078 8.59096 360 ft 1 kts 250°
2026-04-17 11:59 50.05068 8.59054 360 ft 5 kts 250°
2026-04-17 12:00 50.05056 8.59003 360 ft 5 kts 250°
2026-04-17 12:00 50.05043 8.58949 360 ft 6 kts 250°
2026-04-17 12:00 50.05024 8.58869 358 ft 9 kts 250°
2026-04-17 12:00 50.05002 8.58776 355 ft 9 kts 250°
2026-04-17 12:01 50.04974 8.58692 358 ft 8 kts 222°
2026-04-17 12:01 50.04917 8.58683 354 ft 9 kts 173°
2026-04-17 12:01 50.04877 8.58697 355 ft 0 kts 162°
2026-04-17 12:02 50.04874 8.58699 358 ft 3 kts 162°
2026-04-17 12:02 50.04823 8.58728 355 ft 10 kts 159°
2026-04-17 12:03 50.04767 8.58760 358 ft 7 kts 162°
2026-04-17 12:03 50.04733 8.58769 350 ft 0 kts 172°
2026-04-17 12:05 50.04703 8.58771 354 ft 7 kts 181°
2026-04-17 12:05 50.04635 8.58758 356 ft 7 kts 195°
2026-04-17 12:05 50.04603 8.58735 356 ft 7 kts 210°
2026-04-17 12:05 50.04561 8.58689 358 ft 7 kts 217°
2026-04-17 12:06 50.04521 8.58640 358 ft 7 kts 220°
2026-04-17 12:06 50.04490 8.58579 359 ft 7 kts 241°
2026-04-17 12:06 50.04443 8.58397 358 ft 34 kts 250°
2026-04-17 12:06 50.04289 8.57753 358 ft 94 kts 250°
2026-04-17 12:07 50.03996 8.56525 358 ft 147 kts 249°
2026-04-17 12:07 50.03587 8.54825 386 ft 183 kts 249°
2026-04-17 12:07 50.03155 8.52980 878 ft 178 kts 248°
2026-04-17 12:07 50.02714 8.51183 1415 ft 178 kts 250°
2026-04-17 12:08 50.02061 8.49545 1642 ft 184 kts 211°
2026-04-17 12:08 50.00850 8.48920 1895 ft 185 kts 194°
2026-04-17 12:08 49.99561 8.48382 2058 ft 198 kts 189°
2026-04-17 12:08 49.98207 8.48798 2112 ft 209 kts 144°
2026-04-17 12:09 49.97309 8.50633 2263 ft 220 kts 118°
2026-04-17 12:09 49.96563 8.52769 2524 ft 229 kts 120°
2026-04-17 12:09 49.95787 8.54968 2896 ft 235 kts 120°
2026-04-17 12:09 49.94985 8.57213 3331 ft 237 kts 120°
2026-04-17 12:10 49.94213 8.59472 3799 ft 238 kts 112°
2026-04-17 12:10 49.93947 8.62021 4202 ft 240 kts 92°
2026-04-17 12:10 49.93885 8.64634 4637 ft 243 kts 94°
2026-04-17 12:10 49.93794 8.67228 5012 ft 240 kts 95°
2026-04-17 12:11 49.93323 8.69688 4971 ft 239 kts 127°
2026-04-17 12:11 49.92098 8.71416 5018 ft 240 kts 146°
2026-04-17 12:11 49.90735 8.72907 5002 ft 241 kts 146°
2026-04-17 12:12 49.88161 8.76114 4981 ft 234 kts 124°
2026-04-17 12:12 49.87370 8.78348 5039 ft 242 kts 120°
2026-04-17 12:12 49.86558 8.80645 4991 ft 243 kts 120°
2026-04-17 12:12 49.85740 8.82928 5003 ft 241 kts 120°
2026-04-17 12:13 49.84919 8.85206 5205 ft 246 kts 120°
2026-04-17 12:13 49.84069 8.87554 5627 ft 253 kts 120°
2026-04-17 12:13 49.83198 8.89956 6101 ft 258 kts 120°
2026-04-17 12:13 49.82305 8.92414 6514 ft 266 kts 120°
2026-04-17 12:14 49.81390 8.94936 7003 ft 271 kts 120°
2026-04-17 12:14 49.80458 8.97501 7462 ft 276 kts 120°
2026-04-17 12:14 49.79520 9.00080 7999 ft 279 kts 120°
2026-04-17 12:14 49.78563 9.02708 8558 ft 282 kts 120°
2026-04-17 12:15 49.77584 9.05389 9130 ft 284 kts 120°
2026-04-17 12:15 49.76745 9.08114 9552 ft 286 kts 102°
2026-04-17 12:15 49.76799 9.11167 9932 ft 288 kts 73°
2026-04-17 12:15 49.77433 9.14165 10352 ft 292 kts 71°
2026-04-17 12:16 49.78098 9.17226 10556 ft 308 kts 71°
2026-04-17 12:16 49.78778 9.20412 10701 ft 326 kts 71°
2026-04-17 12:16 49.79494 9.23844 10846 ft 345 kts 72°
2026-04-17 12:16 49.80241 9.27502 11003 ft 364 kts 72°
2026-04-17 12:17 49.81002 9.31298 11489 ft 373 kts 72°
2026-04-17 12:17 49.81768 9.35177 12045 ft 381 kts 72°
2026-04-17 12:17 49.82543 9.39144 12724 ft 387 kts 72°
2026-04-17 12:17 49.83321 9.43154 13463 ft 391 kts 72°
2026-04-17 12:18 49.84106 9.47222 14183 ft 396 kts 72°
2026-04-17 12:18 49.84899 9.51342 14822 ft 401 kts 72°
2026-04-17 12:18 49.85700 9.55515 15495 ft 405 kts 72°
2026-04-17 12:18 49.86503 9.59715 16169 ft 409 kts 72°
2026-04-17 12:19 49.87315 9.63966 16810 ft 414 kts 72°
2026-04-17 12:19 49.88132 9.68259 17452 ft 418 kts 72°
2026-04-17 12:19 49.88961 9.72618 18101 ft 422 kts 72°
2026-04-17 12:19 49.89795 9.77008 18700 ft 427 kts 72°
2026-04-17 12:20 49.90624 9.81385 19245 ft 431 kts 71°
2026-04-17 12:20 49.91472 9.85874 19833 ft 434 kts 72°
2026-04-17 12:20 49.92317 9.90375 20423 ft 437 kts 72°
2026-04-17 12:20 49.93171 9.94918 20967 ft 440 kts 71°
2026-04-17 12:21 49.94030 9.99502 21522 ft 444 kts 71°
2026-04-17 12:21 49.94892 10.04107 22058 ft 447 kts 71°
2026-04-17 12:21 49.95762 10.08767 22600 ft 451 kts 71°
2026-04-17 12:21 49.96634 10.13459 23125 ft 454 kts 71°
2026-04-17 12:22 49.97515 10.18204 23648 ft 458 kts 71°
2026-04-17 12:22 49.98398 10.22974 24095 ft 461 kts 71°
2026-04-17 12:22 49.99283 10.27767 24526 ft 464 kts 71°
2026-04-17 12:22 50.00175 10.32608 24995 ft 466 kts 71°
2026-04-17 12:23 50.01068 10.37477 25426 ft 468 kts 71°
2026-04-17 12:23 50.01959 10.42347 25839 ft 471 kts 71°
2026-04-17 12:23 50.02856 10.47259 26248 ft 474 kts 71°
2026-04-17 12:23 50.03757 10.52202 26649 ft 476 kts 71°
2026-04-17 12:24 50.04665 10.57195 27061 ft 479 kts 71°
2026-04-17 12:24 50.05571 10.62193 27440 ft 481 kts 71°
2026-04-17 12:24 50.06404 10.67176 27798 ft 486 kts 76°
2026-04-17 12:24 50.06725 10.72439 28116 ft 493 kts 88°
2026-04-17 12:25 50.06432 10.77863 28466 ft 499 kts 97°
2026-04-17 12:25 50.05570 10.83033 28798 ft 504 kts 106°
2026-04-17 12:25 50.04426 10.88209 29128 ft 506 kts 107°
2026-04-17 12:25 50.03263 10.93384 29416 ft 509 kts 107°
2026-04-17 12:26 50.02105 10.98620 29701 ft 511 kts 107°
2026-04-17 12:26 50.00974 11.03856 29939 ft 514 kts 106°
2026-04-17 12:26 49.99851 11.09152 30257 ft 514 kts 106°
2026-04-17 12:26 49.98735 11.14436 30590 ft 514 kts 106°
2026-04-17 12:27 49.97620 11.19694 30924 ft 513 kts 106°
2026-04-17 12:27 49.96496 11.24964 31180 ft 514 kts 106°
2026-04-17 12:27 49.95366 11.30244 31211 ft 517 kts 106°
2026-04-17 12:28 49.93096 11.40815 31215 ft 513 kts 106°
2026-04-17 12:28 49.91100 11.51392 31232 ft 511 kts 102°
2026-04-17 12:29 49.89235 11.62035 31232 ft 512 kts 103°
2026-04-17 12:29 49.87646 11.72696 31223 ft 509 kts 94°
2026-04-17 12:30 49.86764 11.83587 31231 ft 509 kts 94°
2026-04-17 12:30 49.85838 11.94495 31215 ft 510 kts 94°
2026-04-17 12:31 49.84848 12.05392 31221 ft 511 kts 94°
2026-04-17 12:31 49.83838 12.16289 31220 ft 511 kts 94°
2026-04-17 12:32 49.82833 12.27104 31225 ft 510 kts 94°
2026-04-17 12:32 49.81831 12.37974 31228 ft 511 kts 96°
2026-04-17 12:33 49.79674 12.48525 31238 ft 519 kts 112°
2026-04-17 12:33 49.75923 12.58106 31246 ft 522 kts 123°
2026-04-17 12:34 49.71711 12.67276 31235 ft 523 kts 123°
2026-04-17 12:34 49.67513 12.76460 31230 ft 523 kts 123°
2026-04-17 12:35 49.63350 12.85675 31235 ft 524 kts 122°
2026-04-17 12:35 49.59185 12.94913 31236 ft 524 kts 122°
2026-04-17 12:37 49.42453 13.31659 31230 ft 526 kts 123°
2026-04-17 12:38 49.38241 13.40825 31245 ft 526 kts 123°
2026-04-17 12:38 49.34006 13.50011 31230 ft 526 kts 123°
2026-04-17 12:39 49.29780 13.59146 31233 ft 526 kts 123°
2026-04-17 12:39 49.25540 13.68281 31229 ft 526 kts 123°
2026-04-17 12:40 49.21325 13.77330 31231 ft 526 kts 123°
2026-04-17 12:40 49.17061 13.86455 31230 ft 526 kts 123°
2026-04-17 12:41 49.12797 13.95547 31229 ft 526 kts 123°
2026-04-17 12:41 49.08521 14.04635 31229 ft 527 kts 123°
2026-04-17 12:42 49.04239 14.13706 31233 ft 527 kts 123°
2026-04-17 12:42 48.99973 14.22714 31230 ft 527 kts 123°
2026-04-17 12:43 48.95672 14.31767 31229 ft 528 kts 123°
2026-04-17 12:43 48.91665 14.41095 31227 ft 526 kts 118°
2026-04-17 12:44 48.87832 14.50567 31224 ft 526 kts 118°
2026-04-17 12:44 48.83979 14.60044 31221 ft 527 kts 118°
2026-04-17 12:45 48.80131 14.69418 31218 ft 527 kts 119°
2026-04-17 12:45 48.76213 14.78901 31227 ft 528 kts 119°
2026-04-17 12:46 48.72304 14.88329 31222 ft 528 kts 119°
2026-04-17 12:46 48.68412 14.97687 31213 ft 529 kts 119°
2026-04-17 12:47 48.64484 15.07097 31209 ft 529 kts 119°
2026-04-17 12:47 48.60549 15.16496 31215 ft 528 kts 119°
2026-04-17 12:48 48.56614 15.25860 31213 ft 529 kts 119°
2026-04-17 12:48 48.52661 15.35233 31208 ft 529 kts 119°
2026-04-17 12:49 48.48700 15.44595 31203 ft 529 kts 119°
2026-04-17 12:49 48.44732 15.53937 31209 ft 529 kts 119°
2026-04-17 12:50 48.40785 15.63201 31199 ft 529 kts 120°
2026-04-17 12:50 48.36802 15.72516 31204 ft 529 kts 120°
2026-04-17 12:51 48.32810 15.81820 31204 ft 529 kts 120°
2026-04-17 12:51 48.28809 15.91112 31201 ft 530 kts 120°
2026-04-17 12:52 48.24801 16.00389 31201 ft 530 kts 120°
2026-04-17 12:52 48.21455 16.08109 31198 ft 530 kts 120°
2026-04-17 12:53 48.17430 16.17369 31215 ft 530 kts 120°
2026-04-17 12:53 48.13382 16.26648 31205 ft 531 kts 120°
2026-04-17 12:53 48.11354 16.31287 31372 ft 533 kts 120°
2026-04-17 12:54 48.09326 16.35915 31689 ft 532 kts 120°
2026-04-17 12:54 48.07297 16.40538 32046 ft 530 kts 120°
2026-04-17 12:54 48.05276 16.45133 32378 ft 529 kts 120°
2026-04-17 12:54 48.03248 16.49739 32682 ft 529 kts 120°
2026-04-17 12:55 48.01247 16.54275 32939 ft 529 kts 120°
2026-04-17 12:55 47.99194 16.58921 33132 ft 530 kts 120°
2026-04-17 12:55 47.97165 16.63509 33169 ft 532 kts 121°
2026-04-17 12:56 47.93083 16.72710 33173 ft 530 kts 121°
2026-04-17 12:56 47.89040 16.81788 33185 ft 528 kts 121°
2026-04-17 12:57 47.84970 16.90901 33180 ft 528 kts 121°
2026-04-17 12:57 47.80893 16.99999 33175 ft 528 kts 121°
2026-04-17 12:58 47.76806 17.09090 33171 ft 529 kts 121°
2026-04-17 12:58 47.72700 17.18192 33170 ft 530 kts 121°
2026-04-17 12:59 47.68586 17.27283 33169 ft 531 kts 121°
2026-04-17 12:59 47.64449 17.36397 33163 ft 532 kts 121°
2026-04-17 13:00 47.60612 17.45749 33158 ft 529 kts 114°
2026-04-17 13:00 47.57323 17.55413 33167 ft 529 kts 113°
2026-04-17 13:01 47.54016 17.65151 33160 ft 529 kts 113°
2026-04-17 13:01 47.50666 17.74868 33153 ft 530 kts 114°
2026-04-17 13:02 47.47290 17.84557 33151 ft 530 kts 114°
2026-04-17 13:02 47.43910 17.94214 33160 ft 530 kts 114°
2026-04-17 13:03 47.40517 18.03879 33147 ft 530 kts 114°
2026-04-17 13:03 47.37121 18.13524 33140 ft 530 kts 114°
2026-04-17 13:04 47.33717 18.23153 33138 ft 530 kts 114°
2026-04-17 13:04 47.30302 18.32780 33141 ft 530 kts 114°
2026-04-17 13:05 47.26884 18.42381 33117 ft 530 kts 114°
2026-04-17 13:05 47.23448 18.51997 33122 ft 530 kts 114°
2026-04-17 13:06 47.20033 18.61519 33116 ft 530 kts 114°
2026-04-17 13:06 47.16589 18.71088 33119 ft 529 kts 115°
2026-04-17 13:07 47.13135 18.80650 33118 ft 529 kts 115°
2026-04-17 13:07 47.09673 18.90200 33118 ft 529 kts 115°
2026-04-17 13:08 47.06207 18.99728 33113 ft 529 kts 115°
2026-04-17 13:08 47.02754 19.09184 33111 ft 529 kts 115°
2026-04-17 13:09 46.99275 19.18677 33110 ft 529 kts 115°
2026-04-17 13:09 46.95790 19.28153 33114 ft 528 kts 115°
2026-04-17 13:10 46.92300 19.37612 33119 ft 528 kts 115°
2026-04-17 13:10 46.88802 19.47057 33117 ft 527 kts 116°
2026-04-17 13:11 46.85307 19.56460 33129 ft 526 kts 116°
2026-04-17 13:11 46.81812 19.65833 33128 ft 525 kts 116°
2026-04-17 13:12 46.78309 19.75192 33128 ft 524 kts 116°
2026-04-17 13:12 46.73074 19.89120 33118 ft 524 kts 116°
2026-04-17 13:13 46.69564 19.98418 33114 ft 523 kts 117°
2026-04-17 13:13 46.66059 20.07671 33105 ft 523 kts 117°
2026-04-17 13:14 46.62537 20.16939 33099 ft 523 kts 117°
2026-04-17 13:14 46.59010 20.26186 33100 ft 522 kts 117°
2026-04-17 13:15 46.55484 20.35399 33100 ft 522 kts 117°
2026-04-17 13:15 46.51951 20.44602 33099 ft 521 kts 117°
2026-04-17 13:16 46.48409 20.53795 33096 ft 521 kts 118°
2026-04-17 13:16 46.44860 20.62974 33089 ft 520 kts 118°
2026-04-17 13:17 46.41316 20.72113 33092 ft 520 kts 118°
2026-04-17 13:17 46.37766 20.81233 33088 ft 519 kts 118°
2026-04-17 13:18 46.34235 20.90277 33087 ft 518 kts 118°
2026-04-17 13:18 46.30686 20.99341 33094 ft 518 kts 119°
2026-04-17 13:19 46.27128 21.08399 33097 ft 517 kts 118°
2026-04-17 13:19 46.24047 21.17750 33111 ft 515 kts 112°
2026-04-17 13:20 46.21263 21.27294 33104 ft 515 kts 112°
2026-04-17 13:20 46.18473 21.36801 33103 ft 515 kts 112°
2026-04-17 13:21 46.15646 21.46295 33098 ft 515 kts 113°
2026-04-17 13:21 46.12797 21.55777 33091 ft 515 kts 113°
2026-04-17 13:22 46.09936 21.65259 33082 ft 515 kts 113°
2026-04-17 13:22 46.07070 21.74727 33072 ft 516 kts 113°
2026-04-17 13:23 46.04216 21.84124 33067 ft 515 kts 114°
2026-04-17 13:23 46.01340 21.93562 33061 ft 515 kts 114°
2026-04-17 13:24 45.98458 22.02980 33059 ft 514 kts 114°
2026-04-17 13:24 45.95569 22.12383 33057 ft 513 kts 114°
2026-04-17 13:25 45.92677 22.21767 33056 ft 513 kts 114°
2026-04-17 13:25 45.89780 22.31131 33062 ft 512 kts 115°
2026-04-17 13:26 45.86877 22.40479 33046 ft 512 kts 115°
2026-04-17 13:26 45.83990 22.49743 33056 ft 513 kts 115°
2026-04-17 13:27 45.81054 22.59128 33052 ft 512 kts 115°
2026-04-17 13:27 45.78150 22.68375 33052 ft 513 kts 115°
2026-04-17 13:28 45.75214 22.77694 33043 ft 513 kts 116°
2026-04-17 13:28 45.72273 22.86995 33051 ft 513 kts 116°
2026-04-17 13:29 45.69324 22.96288 33054 ft 513 kts 116°
2026-04-17 13:29 45.66369 23.05563 33058 ft 512 kts 116°
2026-04-17 13:30 45.63411 23.14815 33054 ft 512 kts 116°
2026-04-17 13:30 45.60445 23.24060 33059 ft 511 kts 116°
2026-04-17 13:31 45.57479 23.33275 33049 ft 511 kts 116°
2026-04-17 13:31 45.54501 23.42492 33057 ft 510 kts 117°
2026-04-17 13:32 45.51523 23.51676 33044 ft 510 kts 117°
2026-04-17 13:32 45.48538 23.60845 33045 ft 510 kts 117°
2026-04-17 13:33 45.45544 23.70014 33038 ft 509 kts 117°
2026-04-17 13:33 45.42575 23.79075 33038 ft 509 kts 117°
2026-04-17 13:34 45.39579 23.88188 33035 ft 508 kts 117°
2026-04-17 13:34 45.36578 23.97281 33032 ft 507 kts 117°
2026-04-17 13:35 45.33576 24.06349 33028 ft 507 kts 118°
2026-04-17 13:35 45.30570 24.15396 33026 ft 506 kts 118°
2026-04-17 13:36 45.27562 24.24421 33015 ft 505 kts 118°
2026-04-17 13:36 45.24544 24.33436 33014 ft 505 kts 118°
2026-04-17 13:37 45.21545 24.42372 33013 ft 506 kts 118°
2026-04-17 13:37 45.18508 24.51388 33025 ft 507 kts 118°
2026-04-17 13:38 45.15462 24.60401 33025 ft 507 kts 118°
2026-04-17 13:38 45.12408 24.69408 33025 ft 508 kts 118°
2026-04-17 13:39 45.09339 24.78425 33017 ft 508 kts 118°
2026-04-17 13:39 45.06267 24.87424 33015 ft 508 kts 118°
2026-04-17 13:40 45.03178 24.96440 33009 ft 509 kts 119°
2026-04-17 13:40 45.00613 25.03906 33013 ft 509 kts 119°
2026-04-17 13:41 44.97511 25.12903 33009 ft 509 kts 119°
2026-04-17 13:41 44.94399 25.21902 33012 ft 509 kts 119°
2026-04-17 13:42 44.91283 25.30883 33009 ft 510 kts 119°
2026-04-17 13:42 44.88159 25.39854 33010 ft 509 kts 119°
2026-04-17 13:43 44.85031 25.48810 33013 ft 509 kts 119°
2026-04-17 13:43 44.81913 25.57707 33015 ft 509 kts 119°
2026-04-17 13:44 44.78773 25.66635 33015 ft 509 kts 119°
2026-04-17 13:44 44.75621 25.75570 33014 ft 508 kts 119°
2026-04-17 13:45 44.72471 25.84468 33018 ft 508 kts 119°
2026-04-17 13:45 44.69312 25.93364 33018 ft 507 kts 119°
2026-04-17 13:46 44.66157 26.02217 33019 ft 507 kts 119°
2026-04-17 13:46 44.62990 26.11077 33021 ft 506 kts 119°
2026-04-17 13:47 44.59848 26.19841 33022 ft 506 kts 119°
2026-04-17 13:47 44.56682 26.28641 33021 ft 505 kts 119°
2026-04-17 13:48 44.53511 26.37425 33018 ft 505 kts 119°